30.06.2024;16:00;6
30.06.2024;15:00;6
30.06.2024;14:00;8
30.06.2024;13:00;5
30.06.2024;12:00;5
30.06.2024;11:00;6
30.06.2024;10:00;6
30.06.2024;09:00;5
30.06.2024;08:00;6
30.06.2024;07:00;5
30.06.2024;06:00;6
30.06.2024;05:00;6
30.06.2024;04:00;6
30.06.2024;03:00;10
30.06.2024;02:00;22
30.06.2024;01:00;30
30.06.2024;00:00;26
29.06.2024;23:00;23
29.06.2024;22:00;26
29.06.2024;21:00;30
29.06.2024;20:00;22
29.06.2024;19:00;20
29.06.2024;18:00;20
29.06.2024;17:00;15
29.06.2024;16:00;9
29.06.2024;15:00;10
29.06.2024;14:00;12
29.06.2024;13:00;13
29.06.2024;12:00;14
29.06.2024;11:00;11
29.06.2024;10:00;13
29.06.2024;09:00;13
29.06.2024;08:00;14
29.06.2024;07:00;18
29.06.2024;06:00;13
29.06.2024;05:00;11
29.06.2024;04:00;14
29.06.2024;03:00;19
29.06.2024;02:00;30
29.06.2024;01:00;27
29.06.2024;00:00;24
28.06.2024;23:00;37
28.06.2024;22:00;27
28.06.2024;21:00;18
28.06.2024;20:00;15
28.06.2024;19:00;14
28.06.2024;18:00;12
28.06.2024;17:00;17
